AO-07 1 07530U 74089B 23033.57525519 -.00000028 00000-0 11063-3 0 9998 2 07530 101.9347 19.4102 0012114 322.3376 149.5618 12.53660782206545 UO-11 1 14781U 84021B 23033.73116497 .00001547 00000-0 19087-3 0 9990 2 14781 97.6425 16.0460 0006685 288.4449 71.6039 14.84228771 95191 AO-16 1 20439U 90005D 23033.56890203 .00000196 00000-0 88631-4 0 9992 2 20439 98.8718 20.4326 0009855 234.8781 242.4736 14.33001790725873 LO-19 1 20442U 90005G 23033.50208431 .00000191 00000-0 86262-4 0 9999 2 20442 98.8270 7.2694 0011122 209.2517 150.8045 14.33155364726057 HUBBLE 1 20580U 90037B 23033.47794781 .00004142 00000-0 22576-3 0 9998 2 20580 28.4708 83.4427 0002232 12.3774 117.1578 15.11818977601046 MET-2/21 1 22782U 93055A 23033.56683601 .00000048 00000-0 29928-4 0 9995 2 22782 82.5496 191.5997 0023309 63.4470 6.3528 13.83872236486105 AO-27 1 22825U 93061C 23033.54250622 .00000110 00000-0 60272-4 0 9998 2 22825 98.8614 74.1353 0009523 100.3184 259.9072 14.30238543531316 IO-26 1 22826U 93061D 23033.85930806 .00000123 00000-0 64566-4 0 9996 2 22826 98.8559 74.3250 0010049 87.2500 272.9832 14.30591696531605 FO-29 1 24278U 96046B 23033.54302784 .00000006 00000-0 40598-4 0 9998 2 24278 98.5169 30.5232 0351048 46.3432 316.6250 13.53129721306726 NOAA-15 1 25338U 98030A 23033.88591639 .00000169 00000-0 88488-4 0 9997 2 25338 98.6222 65.1392 0010077 351.6058 8.4952 14.26234254286110 GO-32 1 25397U 98043D 23033.43939884 .00000106 00000-0 66119-4 0 9993 2 25397 98.8507 349.8740 0001851 130.3404 229.7936 14.23813524276152 ISS 1 25544U 98067A 23033.90410880 .00011188 00000-0 20111-3 0 9998 2 25544 51.6422 273.6483 0004824 307.2030 230.1737 15.50364318380963 NO-44 1 26931U 01043C 23033.85656612 .00000200 00000-0 10781-3 0 9991 2 26931 67.0504 183.6493 0005785 282.2488 77.7966 14.30808671114521 SO-50 1 27607U 02058C 23033.29432716 .00001316 00000-0 19855-3 0 9994 2 27607 64.5558 318.3170 0078822 250.8881 108.3676 14.76687424 82302 CO-55 1 27844U 03031E 23033.50099454 .00000376 00000-0 18751-3 0 9990 2 27844 98.6799 42.7302 0010366 150.6249 209.5513 14.22609900 16584 CO-57 1 27848U 03031J 23033.53702607 .00000301 00000-0 15550-3 0 9990 2 27848 98.6839 43.2282 0009986 164.5164 195.6321 14.22144355 16368 RS-22 1 27939U 03042A 23033.78430352 .00001296 00000-0 23565-3 0 9994 2 27939 98.2177 179.9552 0012509 196.5274 163.5533 14.67822624 34820 NOAA-18 1 28654U 05018A 23033.72933318 .00000205 00000-0 13393-3 0 9995 2 28654 98.9246 108.7087 0014748 43.9274 316.3068 14.12852830912585 CO-58 1 28895U 05043F 23033.82559909 .00001552 00000-0 29840-3 0 9991 2 28895 98.1320 167.1500 0017149 133.5820 226.6809 14.64937035921367 CO-65 1 32785U 08021C 23033.89902362 .00002948 00000-0 30488-3 0 9995 2 32785 97.6885 3.0032 0012350 181.3069 178.8119 14.90790845800872 AAUSAT2 1 32788U 08021F 23033.46810937 .00009256 00000-0 74323-3 0 9992 2 32788 97.5533 16.2992 0010247 79.0705 281.1671 15.00226976802984 DO-64 1 32789U 08021G 23033.50558345 .00030675 00000-0 13437-2 0 9997 2 32789 97.3203 57.2626 0006677 228.3863 131.6802 15.21939353806906 CO-66 1 32791U 08021J 23033.33609776 .00006066 00000-0 56682-3 0 9993 2 32791 97.6399 7.7387 0014018 136.5332 223.6996 14.94431168801508 RS-30 1 32953U 08025A 23033.79978673 .00000024 00000-0 10000-3 0 9994 2 32953 82.5021 40.6745 0020508 116.4691 243.8493 12.43118314666954 PRISM 1 33493U 09002B 23033.53466247 .00007563 00000-0 56845-3 0 9993 2 33493 98.2511 38.9540 0019402 131.7063 228.5824 15.02745001763503 NOAA-19 1 33591U 09005A 23033.54468208 .00000194 00000-0 12973-3 0 9992 2 33591 99.1207 77.1989 0012979 260.8789 99.0914 14.12678795720674 SRMSAT 1 37841U 11058D 23033.15117000 .00000447 00000-0 10063-3 0 9992 2 37841 19.9726 306.4234 0011767 348.1312 159.8488 14.10824428583716 HRBE 1 37855U 11061F 23033.95541809 .00013927 00000-0 53297-3 0 9990 2 37855 101.7105 281.4824 0138033 88.8685 272.8344 15.18315516616600 RS-40 1 38735U 12041C 23033.20879783 .00000043 00000-0 23858-3 0 9995 2 38735 82.4776 122.2730 0016853 227.4749 132.4913 12.42590949477058 ZACUBE-1 1 39417U 13066B 23033.88243361 .00003521 00000-0 42214-3 0 9993 2 39417 97.6678 0.5239 0056702 10.7964 349.4453 14.83528177497272 Delfi-N3xt 1 39428U 13066N 23033.76832547 .00004339 00000-0 65195-3 0 9993 2 39428 97.8297 323.5797 0112396 260.7871 98.0609 14.70802796492549 GOMX-1 1 39430U 13066Q 23033.78864977 .00002137 00000-0 38183-3 0 9991 2 39430 97.7954 292.7126 0148578 38.6310 322.5406 14.60933393489919 LO-74 1 39440U 13066AA 23033.38746181 .00002867 00000-0 38363-3 0 9994 2 39440 97.7571 346.7890 0079029 105.0340 255.9634 14.78046698494234 AO-73 1 39444U 13066AE 23033.44603212 .00005629 00000-0 65025-3 0 9996 2 39444 97.6544 2.5616 0054827 358.9962 1.1134 14.84884063495632 SPROUT 1 39770U 14029E 23033.79396591 .00014271 00000-0 12958-2 0 9994 2 39770 97.9567 158.0296 0008122 39.3828 320.7943 14.95363538472028 DTUSAT-2 1 40030U 14033W 23033.77773318 .00004515 00000-0 45794-3 0 9999 2 40030 97.9570 332.8580 0011972 24.6861 335.4928 14.91346269468469 EO-80 1 40032U 14033Y 23033.35085350 .00004420 00000-0 44862-3 0 9997 2 40032 97.9567 332.4439 0011880 26.4329 333.7492 14.91330679467861 HODOYOSHI-1 1 40299U 14070B 23033.44487590 .00008319 00000-0 28841-3 0 9995 2 40299 97.2153 99.8127 0012410 44.9731 75.7954 15.29991341458182 FIREBIRD FU3 1 40377U 15003B 23033.82736121 .00045916 00000-0 95299-3 0 9993 2 40377 99.0782 316.6539 0073964 320.5063 39.0802 15.42605028443757 FIREBIRD FU4 1 40378U 15003C 23033.83720002 .00043851 00000-0 90745-3 0 9993 2 40378 99.0797 316.9434 0073809 319.9699 39.6116 15.42712502443767 GRIFEX 1 40379U 15003D 23033.29562932 .00028857 00000-0 84634-3 0 9999 2 40379 99.0845 298.8435 0101034 13.9273 346.4712 15.30145308442684 XW-2A 1 40903U 15049E 23033.75350495 .00074859 00000-0 58344-3 0 9994 2 40903 97.1431 99.3110 0005374 341.7573 112.1265 15.71464909415166 XW-2C 1 40906U 15049H 23033.75500259 .00009490 00000-0 41386-3 0 9999 2 40906 97.4974 40.8100 0010569 275.2015 190.6236 15.22334595407914 XW-2D 1 40907U 15049J 23033.78092142 .00011064 00000-0 46573-3 0 9993 2 40907 97.4950 41.0770 0009674 268.9406 196.1953 15.23501689407988 LILACSAT-2 1 40908U 15049K 23033.51742436 .00005096 00000-0 25647-3 0 9990 2 40908 97.5237 37.1566 0012955 302.9804 214.6826 15.17593888407355 XW-2E 1 40909U 15049L 23033.52544674 .00018434 00000-0 64457-3 0 9998 2 40909 97.4617 46.0658 0008296 235.4867 275.9772 15.29560590408493 XW-2F 1 40910U 15049M 23033.78501343 .00018080 00000-0 64307-3 0 9995 2 40910 97.4709 45.5247 0009120 237.0165 208.4587 15.29000705408291 XW-2B 1 40911U 15049N 23033.75977101 .00010966 00000-0 46382-3 0 9990 2 40911 97.4936 41.5675 0009694 269.8217 194.5986 15.23343044407862 DCBB 1 40912U 15049P 23033.47493503 .00021297 00000-0 66742-3 0 9990 2 40912 97.4296 49.5964 0010545 192.7815 308.1303 15.33044766408896 IO-86 1 40931U 15052B 23033.25604899 .00001402 00000-0 10520-3 0 9992 2 40931 5.9963 329.5729 0012381 183.3534 176.6489 14.77010365397374 ATHENOXAT-1 1 41168U 15077C 23033.48924124 .00038020 00000-0 11790-2 0 9998 2 41168 14.9829 175.5544 0005470 252.0825 164.9518 15.31395329395479 ChubuSat-2 1 41338U 16012B 23033.22692437 .00003954 00000-0 28349-3 0 9995 2 41338 31.0048 359.8032 0013250 273.3028 86.6092 15.02564086382059 ChubuSat-3 1 41339U 16012C 23033.28012325 .00003518 00000-0 25165-3 0 9993 2 41339 31.0131 356.4099 0013101 281.3498 78.5649 15.02545509382062 Horyu-4 1 41340U 16012D 23033.18368921 .00007232 00000-0 48584-3 0 9997 2 41340 31.0057 330.1571 0012697 326.8549 33.1292 15.05359515382341 e-st@r-II 1 41459U 16025D 23033.57928588 .00026726 00000-0 97436-3 0 9995 2 41459 98.1927 222.0812 0126342 204.9432 154.5694 15.20856094372376 AAUSAT4 1 41460U 16025E 23033.54225299 .00049696 00000-0 13556-2 0 9994 2 41460 98.1753 231.0127 0095305 171.4908 248.3441 15.32740485372993 LO-87 1 41557U 16033B 23033.48546263 .00028545 00000-0 63513-3 0 9999 2 41557 97.3860 137.7634 0008948 271.1834 150.0665 15.43565638372745 NuSat2 1 41558U 16033C 23033.77297897 .00030234 00000-0 63512-3 0 9995 2 41558 97.4122 145.1205 0008500 258.8014 253.9296 15.45261004373095 Lapan A3 1 41603U 16040E 23033.94881726 .00002000 00000-0 91617-4 0 9991 2 41603 97.1829 65.6802 0014665 72.0903 334.0677 15.21493323367078 Pratham 1 41783U 16059A 23033.70390169 .00000630 00000-0 12898-3 0 9990 2 41783 97.8868 70.7076 0033657 164.0094 196.2180 14.63630306339303 TY-1 1 41844U 16066D 23033.48773194 .00027582 00000-0 71565-3 0 9995 2 41844 97.3816 50.4436 0010912 171.8341 354.2222 15.38902624346864 CAS-2T 1 41847U 16066G 23033.45747313 .00001536 00000-0 24001-3 0 9993 2 41847 98.5226 102.6006 0361046 241.3605 115.0831 14.39100098327426 EO-88 1 42017U 17008BX 23033.18544708 .00051742 00000-0 10268-2 0 9996 2 42017 97.2387 102.0813 0003746 132.6925 227.4641 15.46841066332415 CAS-4B 1 42759U 17034B 23033.54013984 .00007599 00000-0 41881-3 0 9992 2 42759 43.0160 142.5882 0011840 307.2142 164.4016 15.14318759311209 CAS-4A 1 42761U 17034D 23033.56308867 .00007054 00000-0 38813-3 0 9991 2 42761 43.0157 141.0710 0012011 307.9749 170.4970 15.14461555311213 NIUSat 1 42766U 17036B 23033.31124455 .00018669 00000-0 61031-3 0 9992 2 42766 97.1771 68.2531 0010708 221.0128 139.0310 15.31710705311918 Aalto 1 1 42775U 17036L 23033.06864181 .00011364 00000-0 39521-3 0 9995 2 42775 97.1723 67.4015 0009985 223.2495 136.7963 15.29825560311820 URSA MAIOR 1 42776U 17036M 23033.06707720 .00013156 00000-0 44194-3 0 9994 2 42776 97.1733 68.4223 0009622 220.5378 139.5148 15.30920462311872 Max Valier Sat 1 42778U 17036P 23033.54000408 .00012698 00000-0 40848-3 0 9990 2 42778 97.1778 72.0253 0008423 217.6784 142.3869 15.32333682312061 Pegasus 1 42784U 17036V 23033.07890305 .00020997 00000-0 60013-3 0 9995 2 42784 97.1706 73.0814 0007602 214.6215 145.4535 15.35982865312168 NUDATSat 1 42787U 17036Y 23033.97573617 .00058328 00000-0 10929-2 0 9990 2 42787 97.1693 80.6200 0006288 187.5514 172.5645 15.48459489312559 SUCHAI 1 1 42788U 17036Z 23033.54219629 .00029135 00000-0 73209-3 0 9999 2 42788 97.1700 76.0282 0006906 203.7747 156.3182 15.39907948312468 SKCUBE 1 42789U 17036AA 23033.06002699 .00024572 00000-0 65762-3 0 9999 2 42789 97.1700 74.6325 0007019 208.2291 151.8575 15.38003308312250 VZLUSAT 1 1 42790U 17036AB 23033.11985296 .00049947 00000-0 95769-3 0 9993 2 42790 97.1707 79.6487 0005712 192.8765 167.2341 15.47836546312569 VENTA 1 1 42791U 17036AC 23033.04894222 .00020598 00000-0 58518-3 0 9996 2 42791 97.1714 74.1836 0006973 210.5759 149.5080 15.36180024312213 Robusta 1B 1 42792U 17036AD 23033.09328904 .00028453 00000-0 72953-3 0 9998 2 42792 97.1697 75.4876 0006473 206.1759 153.9161 15.39297807312320 D-SAT 1 42794U 17036AF 23033.53304526 .00005004 00000-0 41101-3 0 9991 2 42794 97.4589 32.0538 0121089 35.0498 325.8615 14.93991968305817 TechnoSat 1 42829U 17042E 23033.56228753 .00002178 00000-0 21615-3 0 9994 2 42829 97.3970 239.0434 0012957 322.4843 37.5472 14.92654921302407 AO-91 1 43017U 17073E 23033.62542937 .00004864 00000-0 35397-3 0 9994 2 43017 97.6506 283.3382 0241851 152.4428 208.9855 14.83666533281212 PICSAT 1 43132U 18004X 23033.22420690 .00035478 00000-0 86973-3 0 9995 2 43132 97.3493 114.2495 0006030 254.0059 106.0524 15.40628156281658 AO-92 1 43137U 18004AC 23033.14612832 .00019548 00000-0 55918-3 0 9997 2 43137 97.3453 111.7877 0005946 266.1929 93.8635 15.35985488281519 TianYi 2 1 43155U 18008A 23033.50066216 .00012243 00000-0 57421-3 0 9996 2 43155 97.3221 89.6449 0015810 64.9758 45.8530 15.19697126278153 Zhou Enlai 1 43156U 18008B 23033.47299340 .00013529 00000-0 63485-3 0 9994 2 43156 97.3271 89.5915 0013419 66.3632 58.4519 15.19687409278077 TianYi 6 1 43158U 18008D 23033.11335681 .00011161 00000-0 55132-3 0 9996 2 43158 97.3236 86.6806 0013332 69.4892 343.9750 15.17948380277897 S-Net D 1 43186U 18014G 23033.68802363 .00003982 00000-0 33237-3 0 9996 2 43186 97.6487 299.9606 0007810 235.4523 124.5963 14.99102325273396 S-Net B 1 43187U 18014H 23033.62179421 .00003971 00000-0 33154-3 0 9999 2 43187 97.6478 299.8353 0007795 235.6536 124.3950 14.99099164273382 S-Net A 1 43188U 18014J 23033.28833472 .00004287 00000-0 35752-3 0 9992 2 43188 97.6484 299.5856 0007785 236.8176 123.2301 14.99098074273339 S-Net C 1 43189U 18014K 23033.28961172 .00004182 00000-0 34894-3 0 9992 2 43189 97.6480 299.4947 0007729 237.7283 122.3192 14.99093678271884 FMN 1 1 43192U 18015A 23033.79103219 .00152007 00000-0 14656-2 0 9996 2 43192 97.5522 193.7166 0011549 282.8452 197.2690 15.65939222279067 Shaonian Xing 1 43199U 18015H 23033.82837377 .00042491 00000-0 85322-3 0 9990 2 43199 97.5342 185.2887 0011588 295.6571 170.4951 15.46478731278870 CP-7 DAVE 1 43615U 18070C 23033.44140438 .00700547 23278-3 11962-2 0 9993 2 43615 92.9902 197.3379 0004531 267.9876 92.0894 16.02589055247038 CubeBel-1 1 43666U 18083E 23033.94786486 .00018787 00000-0 66271-3 0 9994 2 43666 97.3998 65.5047 0009729 235.2461 191.4916 15.29256538236625 Changshagaoxin 1 43669U 18083H 23033.93732545 .00015781 00000-0 59745-3 0 9992 2 43669 97.3972 60.7263 0006948 231.1746 224.3311 15.26988527236406 Ten-Koh 1 43677U 18084G 23033.53269836 .00002912 00000-0 29287-3 0 9996 2 43677 97.9903 171.2340 0014499 230.8640 129.1290 14.91965089231972 PO-101 1 43678U 18084H 23033.48951797 .00002137 00000-0 21255-3 0 9991 2 43678 97.9982 174.9893 0008596 242.6526 117.3820 14.92743083232167 QO-100 1 43700U 18090A 23033.50644132 .00000147 00000-0 00000-0 0 9990 2 43700 0.0138 93.6215 0002466 253.5902 353.2963 1.00273731 15335 Reaktor Hello World 1 43743U 18096AA 23033.23337654 .00033546 00000-0 76579-3 0 9997 2 43743 97.3333 118.0188 0012259 314.1336 45.8903 15.42729611233261 MinXSS-2 1 43758U 18099A 23033.15104001 .00004195 00000-0 34857-3 0 9996 2 43758 97.5997 100.4121 0013033 210.1370 149.9104 14.99198848227491 AO-95 1 43770U 18099N 23033.38561538 .00005219 00000-0 44652-3 0 9999 2 43770 97.5926 98.5906 0012834 218.0018 142.0301 14.97964400227417 RANGE-B 1 43772U 18099Q 23033.12161806 .00005720 00000-0 47488-3 0 9994 2 43772 97.6046 100.6366 0013023 203.5717 156.4911 14.99086560227414 RANGE-A 1 43773U 18099R 23033.46216872 .00003903 00000-0 34225-3 0 9992 2 43773 97.5858 97.1191 0012112 204.4188 155.6462 14.97151323227398 MOVE-II 1 43780U 18099Y 23033.14973111 .00005913 00000-0 47512-3 0 9997 2 43780 97.6018 100.2177 0011110 226.6551 133.3747 15.00353251227468 SNUSat 2 1 43782U 18099AA 23033.14672308 .00003713 00000-0 31875-3 0 9994 2 43782 97.5948 98.8731 0011005 204.1451 155.9257 14.98024559227404 SnugLite 1 43784U 18099AC 23033.47608752 .00004538 00000-0 38449-3 0 9994 2 43784 97.5914 98.8178 0012980 211.0929 148.9527 14.98406729227487 ITASat 1 1 43786U 18099AE 23033.16869753 .00003792 00000-0 32627-3 0 9995 2 43786 97.5954 99.4031 0013917 215.0020 145.0288 14.97900944227428 EAGLET 1 1 43790U 18099AJ 23033.18601862 .00003420 00000-0 29547-3 0 9992 2 43790 97.5946 99.9545 0012220 214.6961 145.3465 14.97823727227168 ESEO 1 43792U 18099AL 23033.56720135 .00001420 00000-0 12869-3 0 9998 2 43792 97.5894 99.1454 0012253 213.4374 146.6076 14.96850417227240 CSIM 1 43793U 18099AM 23033.15591942 .00005799 00000-0 45840-3 0 9994 2 43793 97.5987 101.3857 0017276 210.8987 149.1222 15.00921767227309 Astrocast 0.1 1 43798U 18099AS 23033.64423748 .00006287 00000-0 51248-3 0 9993 2 43798 97.5947 101.3541 0012707 193.2029 166.8864 14.99759980227586 JO-97 1 43803U 18099AX 23033.15584359 .00003694 00000-0 31108-3 0 9994 2 43803 97.5924 99.2566 0013281 214.2074 145.8295 14.98759107227453 Suomi 100 1 43804U 18099AY 23033.59518836 .00005203 00000-0 43820-3 0 9992 2 43804 97.5923 99.5435 0013382 206.8043 153.2490 14.98566115227529 Al Farabi 2 1 43805U 18099AZ 23033.59876040 .00006703 00000-0 54745-3 0 9991 2 43805 97.5940 100.3618 0013093 202.5688 157.4956 14.99655582227565 CHOMPTT 1 43855U 18104G 23033.12415287 .00012964 00000-0 40554-3 0 9993 2 43855 85.0305 257.5084 0015985 100.5723 259.7326 15.32870056229830 ISAT 1 43879U 18111D 23033.32979344 .00006152 00000-0 49930-3 0 9997 2 43879 97.6506 299.8199 0011404 257.3983 102.5965 14.99954308224109 UWE-4 1 43880U 18111E 23033.24879224 .00005278 00000-0 42848-3 0 9995 2 43880 97.6563 300.5909 0011977 271.7596 88.2255 15.00005533224122 Sparrow 1 43881U 18111F 23033.70173420 .00005583 00000-0 44922-3 0 9996 2 43881 97.6653 301.3776 0010251 281.4715 78.5357 15.00338331222206 Lume 1 1 43908U 18111AJ 23033.93525223 .00017582 00000-0 48634-3 0 9999 2 43908 97.1627 279.8830 0014711 335.8764 24.1790 15.36960851228701 FO-99 1 43937U 19003F 23033.32120208 .00031313 00000-0 80892-3 0 9999 2 43937 97.1072 63.4354 0018430 52.9248 307.3679 15.38892511225215 AstroCast 0.2 1 44083U 19018F 23033.14862066 .00019836 00000-0 59132-3 0 9992 2 44083 97.2914 93.2033 0007825 27.1171 333.0480 15.34669991213600 AISTechSat 3 1 44103U 19018AB 23033.14921533 .00015773 00000-0 49336-3 0 9991 2 44103 97.2776 93.1502 0011367 43.3049 316.9084 15.33156842213761 AISat 1 1 44104U 19018AC 23033.24993995 .00016121 00000-0 38494-3 0 9995 2 44104 97.3811 122.7529 0047111 28.9587 331.4258 15.40421474214909 Prox-1 1 44339U 19036A 23033.57294419 .00006491 00000-0 13666-2 0 9998 2 44339 23.9991 178.9268 0009183 222.6623 137.3156 14.57060112191928 Oculus-ASR 1 44348U 19036K 23033.23571083 .00391289 47410-4 90802-3 0 9996 2 44348 28.4886 4.5550 0085225 81.8692 279.1577 15.89517389200327 NO-104 1 44354U 19036R 23033.92394554 .00554116 12427-3 75598-3 0 9999 2 44354 28.5148 335.3044 0061961 126.4119 234.2230 16.01098853200660 Move-IIb 1 44398U 19038N 23033.50176023 .00031276 00000-0 11815-2 0 9991 2 44398 97.6539 11.4014 0020402 55.8117 304.5052 15.26744000198023 SONATE 1 44400U 19038Q 23033.44282137 .00009569 00000-0 47505-3 0 9998 2 44400 97.6696 8.7821 0024163 62.9629 297.4066 15.17651007197771 BeeSat 9 1 44412U 19038AC 23033.49078739 .00020062 00000-0 86927-3 0 9999 2 44412 97.6626 10.5594 0020405 62.8167 297.5145 15.22234709197610 JAISAT-1 1 44419U 19038F 23033.47262624 .00019832 00000-0 84908-3 0 9992 2 44419 97.6627 11.5488 0019408 60.4365 299.8802 15.22662182197981 Taurus 1 1 44530U 19059C 23033.73096910 .00004558 00000-0 12270-2 0 9992 2 44530 98.5486 139.6960 0014427 142.9138 217.2991 14.48410985179167 Duchifat 3 1 44854U 19089C 23033.53909391 .00007268 00000-0 52939-3 0 9996 2 44854 36.9633 174.3940 0008475 303.2734 140.8691 15.03386893172545 OPS-SAT 1 44878U 19092F 23033.58155774 .00017844 00000-0 69664-3 0 9993 2 44878 97.4763 221.3633 0010221 259.1972 100.8116 15.25913918173204 TO-108 1 44881U 19093C 23033.56282243 .00001078 00000-0 14194-3 0 9998 2 44881 97.8737 114.2818 0015347 152.4457 207.7570 14.82098573168854 FloripaSat 1 1 44885U 19093G 23033.73494194 .00003574 00000-0 43135-3 0 9991 2 44885 97.8794 116.4756 0014671 156.2149 203.9714 14.84338788168995 RS-44 1 44909U 19096E 23033.51574156 .00000027 00000-0 57524-4 0 9992 2 44909 82.5184 77.4343 0218228 141.6299 220.0556 12.79717973144988 BY70-2 1 45857U 20042B 23033.54232889 .00012429 00000-0 14915-2 0 9999 2 45857 97.9373 113.5447 0010024 90.6634 269.5726 14.84126702139521 UPMSat 2 1 46276U 20061E 23033.18873895 .00007443 00000-0 34288-3 0 9990 2 46276 97.3660 103.7314 0002738 89.0317 271.1232 15.20567867133759 AmicalSat 1 46287U 20061R 23033.15560836 .00008627 00000-0 45365-3 0 9990 2 46287 97.4201 102.4715 0002120 173.5397 186.5863 15.15900396133229 SALSAT 1 46495U 20068K 23033.52670469 .00004581 00000-0 31818-3 0 9996 2 46495 97.7558 340.3995 0015096 212.3620 147.6681 15.05973082128791 BY70-3 1 46839U 20079N 23033.51736321 .00086505 00000-0 99557-3 0 9999 2 46839 97.1700 109.5176 0004121 221.2349 266.2844 15.61704036125852 CAPE 3 1 47309U 21002A 23033.92490445 .00020193 00000-0 65577-3 0 9994 2 47309 60.6783 214.2216 0039113 110.6705 249.8586 15.31271004113652 AO-109 1 47311U 21002C 23033.88095512 .00017398 00000-0 57449-3 0 9990 2 47311 60.6812 211.8736 0036691 107.8077 252.7023 15.30917321113675 MiTEE 1 1 47314U 21002F 23033.55453666 .00054398 00000-0 11526-2 0 9991 2 47314 60.6753 196.1493 0031545 99.8740 260.5921 15.44187938113927 ExoCube 2 1 47319U 21002L 23033.23400657 .00021229 00000-0 71063-3 0 9993 2 47319 60.6798 215.9912 0037600 109.2678 251.2486 15.30325127113507 UVSQ-SAT 1 47438U 21006AB 23033.12917326 .00009722 00000-0 46112-3 0 9994 2 47438 97.4072 92.4949 0010628 189.6465 170.4567 15.19432852112105 YUSAT 1 1 47439U 21006AC 23033.12199588 .00012622 00000-0 57723-3 0 9990 2 47439 97.4083 92.8550 0010254 189.3653 170.7393 15.20629346112121 SOMP 2b 1 47445U 21006AJ 23033.12586838 .00011769 00000-0 56638-3 0 9990 2 47445 97.4046 91.9295 0010286 194.3789 165.7155 15.18882263112085 IDEASSat 1 47458U 21006AX 23033.13435006 .00009019 00000-0 43823-3 0 9992 2 47458 97.4135 92.6411 0009545 192.3294 167.7708 15.18625557112077 CubeSX-Sirius-HSE 1 47951U 21022V 23033.47916972 .00007319 00000-0 45050-3 0 9996 2 47951 97.5121 293.2141 0022111 78.2795 27.0693 15.10093695102672 CubeSX-HSE 1 47952U 21022W 23033.52349971 .00007879 00000-0 48387-3 0 9999 2 47952 97.5127 293.2942 0022017 79.2776 22.6016 15.10155279102681 KSU-Cubesat 1 47954U 21022Y 23033.28659763 .00008845 00000-0 53561-3 0 9991 2 47954 97.5129 293.2891 0021605 78.7359 281.6297 15.10636252102381 GRBAlpha 1 47959U 21022AD 23033.51259031 .00007617 00000-0 46725-3 0 9996 2 47959 97.5120 293.3462 0021968 79.3465 2.8624 15.10206095101507 Orbicraft-Zorkiy 1 47960U 21022AE 23033.78399664 .00008544 00000-0 51821-3 0 9997 2 47960 97.5151 293.8840 0021558 77.4478 8.0611 15.10592208102246 STECCO 1 47962U 21022AG 23033.81111284 .00012708 00000-0 69947-3 0 9998 2 47962 97.5116 295.3702 0016706 69.2320 3.8369 15.14057627101660 DO-111 1 47963U 21022AH 23033.66679378 .00045088 00000-0 17449-2 0 9991 2 47963 97.5158 298.6215 0016571 62.5512 297.7409 15.25923460101872 MO-110 1 47964U 21022AJ 23033.24715020 .00015688 00000-0 84861-3 0 9997 2 47964 97.5141 295.2505 0019265 68.3389 291.9892 15.14587583101602 FEES 1 48082U 21022AL 23033.25957825 .00023591 00000-0 11899-2 0 9993 2 48082 97.5141 295.6169 0015487 65.3947 294.8898 15.17028164101339 CSS 1 48274U 21035A 23033.53957896 .00012406 00000-0 14714-3 0 9992 2 48274 41.4756 256.8662 0002330 122.7310 319.3253 15.61018177100771 TUBIN 1 48900U 21059X 23033.84635505 .00006916 00000-0 35935-3 0 9995 2 48900 97.5780 167.0587 0010273 32.6840 119.9258 15.16368296 88793 IT-SPINS 1 49017U 21013G 23033.31388626 .00022746 00000-0 71408-3 0 9990 2 49017 51.5967 15.4256 0006960 173.6026 186.5045 15.32899873 88959 LEDSAT 1 49069U 21073D 23033.18388817 .00007567 00000-0 45220-3 0 9997 2 49069 97.5003 106.5228 0024688 224.3064 135.6190 15.11109747 80499 CUTE 1 49263U 21088D 23033.18192752 .00007354 00000-0 51349-3 0 9993 2 49263 97.5639 101.4942 0019092 8.1949 351.9586 15.05492485 73952 TeikyoSat 4 1 49396U 21102B 23033.15117618 .00001595 00000-0 12764-3 0 9991 2 49396 97.5405 89.2172 0013879 194.6332 165.4493 15.01499090 67506 Z-Sat 1 49399U 21102E 23033.58474963 .00002712 00000-0 20169-3 0 9990 2 49399 97.5049 90.7745 0022703 165.3063 194.8828 15.03596684 67651 KOSEN 1 1 49402U 21102H 23033.86659124 .00002851 00000-0 20424-3 0 9998 2 49402 97.4995 91.3636 0022331 152.7960 207.4442 15.04975786 67742 HO-113 1 50466U 21131B 23033.53588774 .00000403 00000-0 14605-3 0 9993 2 50466 98.5623 115.4835 0004948 171.8535 188.2734 14.38652825 57995 Tevel-3 1 50988U 22002E 23033.56960345 .00012958 00000-0 62334-3 0 9991 2 50988 97.4539 101.9198 0008456 353.0076 115.7915 15.18889391 58280 Tevel-8 1 50989U 22002F 23033.71292828 .00012923 00000-0 62265-3 0 9998 2 50989 97.4560 102.1055 0008587 351.7082 107.3620 15.18834470 58308 Tevel-5 1 50998U 22002Q 23033.57737571 .00013325 00000-0 62971-3 0 9992 2 50998 97.4532 102.1768 0009475 346.7070 122.9462 15.19490592 58307 Tevel-6 1 50999U 22002R 23033.57656409 .00013355 00000-0 63097-3 0 9996 2 50999 97.4531 102.1721 0009616 345.7062 125.9355 15.19496926 58304 Tevel-1 1 51013U 22002AF 23033.57617321 .00013012 00000-0 62646-3 0 9993 2 51013 97.4536 101.8868 0008278 352.3221 117.3691 15.18859399 58280 Grizu-263a 1 51025U 22002AT 23033.18093208 .00038084 00000-0 14689-2 0 9994 2 51025 97.4705 104.1390 0010434 343.7464 16.3438 15.26154272 58348 NO-116 1 51031U 22002AZ 23033.11374186 .00018501 00000-0 80266-3 0 9998 2 51031 97.4666 103.0835 0011301 348.0474 12.0492 15.22338853 58287 IRIS-A 1 51044U 22002BN 23033.12843368 .00007446 00000-0 38965-3 0 9991 2 51044 97.4550 100.8317 0008685 358.3159 1.8043 15.16094624 58172 Tevel-7 1 51062U 22002CG 23033.58516080 .00012978 00000-0 62526-3 0 9995 2 51062 97.4550 101.9583 0008476 351.4971 118.5126 15.18835589 58288 Tevel-4 1 51063U 22002CH 23033.58699984 .00012829 00000-0 61861-3 0 9997 2 51063 97.4553 101.9506 0008503 351.4482 114.5703 15.18809301 58285 Tevel-2 1 51069U 22002CP 23033.57128194 .00013036 00000-0 62708-3 0 9994 2 51069 97.4536 101.8996 0008360 353.0274 114.7095 15.18888173 58282 DELFI-PQ 1 51074U 22002CU 23033.17059382 .00021284 00000-0 86632-3 0 9994 2 51074 97.4793 104.7253 0011959 15.3557 344.8041 15.24462070 58357 SO-115 1 51080U 22002DA 23032.91769551 .00013544 00000-0 60184-3 0 9992 2 51080 97.4812 103.9055 0012487 19.9132 340.2588 15.21577921 58279 SO-114 1 51081U 22002DB 23032.91604052 .00013906 00000-0 61668-3 0 9997 2 51081 97.4802 103.8667 0012734 19.5353 340.6368 15.21639156 58272 OreSat0 1 52017U 22026K 23033.94426499 .00011218 00000-0 53146-3 0 9990 2 52017 97.5095 36.4692 0024737 188.4034 171.6790 15.19215383 49128 Planetum 1 1 52738U 22057G 23033.29017861 .00011987 00000-0 63507-3 0 9996 2 52738 97.5258 149.8850 0008304 95.8083 264.4096 15.15521645 38193 Foresail-1 1 52766U 22057AL 23033.93465338 .00007821 00000-0 40943-3 0 9995 2 52766 97.5356 151.2634 0013881 77.4625 68.3045 15.16014497 38316 SNUGLITE 2 1 52899U 22065F 23033.39570984 .00001223 00000-0 27135-3 0 9993 2 52899 98.0458 182.2007 0007040 279.3802 80.6602 14.58755140 31209 CTIM 1 52950U 22074G 23033.26500864 .00028044 00000-0 93284-3 0 9995 2 52950 45.0054 26.4829 0007669 69.2360 290.9280 15.30704780 32848 IO-117 1 53106U 22080B 22354.08419093 -.00000003 00000-0 00000 0 0 9990 2 53106 70.1702 21.9397 0008914 226.9685 182.2049 6.42557326 10248 AstroBioCubeSat 1 53107U 22080C 22364.14200119 -.00000003 00000-0 00000-0 0 9997 2 53107 70.1674 18.5562 0013489 216.1674 143.8074 6.42110599 10793 CELESTA 1 53111U 22080G 22310.17474584 -.00000003 00000-0 00000 0 0 9994 2 53111 70.4223 37.2580 0024959 243.8956 115.9136 6.43203861 7301 SelfieSat 1 53951U 22057BA 23033.28883565 .00013758 00000-0 71678-3 0 9991 2 53951 97.5311 150.2038 0010404 89.2235 271.0190 15.16065456 38200 FO-118 1 54684U 22167C 23033.49218694 .00009236 00000-0 57230-3 0 9999 2 54684 97.5399 172.5559 0015406 78.6143 349.4484 15.09885108 8324 HO-119 1 54816U 21035C 23033.60729753 .00136766 00000-0 93012-3 0 9992 2 54816 41.4763 253.9911 0012593 252.4098 107.5406 15.73590163 7179
